Stations météo

Publicité
Lorient Lan Bihoue, France (7205): Température de l'air & dewpoint: 19.06.2017 19:00:00 - 25.06.2017 19:00:00 (CEST)Lorient Lan Bihoue, France (7205): Température de l'air 5cm: 19.06.2017 19:00:00 - 25.06.2017 19:00:00 (CEST)Lorient Lan Bihoue, France (7205): Température de l'air -20cm: 19.06.2017 19:00:00 - 25.06.2017 19:00:00 (CEST)Lorient Lan Bihoue, France (7205): Vitesse du vent & gusts: 19.06.2017 19:00:00 - 25.06.2017 19:00:00 (CEST)Lorient Lan Bihoue, France (7205): Direction du vent: 19.06.2017 19:00:00 - 25.06.2017 19:00:00 (CEST)Lorient Lan Bihoue, France (7205): reduced air pressure: 19.06.2017 19:00:00 - 25.06.2017 19:00:00 (CEST)Lorient Lan Bihoue, France (7205): visibility: 19.06.2017 19:00:00 - 25.06.2017 19:00:00 (CEST)Lorient Lan Bihoue, France (7205): Ensoleillement: 19.06.2017 19:00:00 - 25.06.2017 19:00:00 (CEST)Lorient Lan Bihoue, France (7205): Quantités de précipitations: 19.06.2017 19:00:00 - 25.06.2017 19:00:00 (CEST)
Date & Time tt [°C] td [°C] tt 5cm [°C] tt -20cm [°C] ff [km/h] ff [knt] fx [km/h] fx [knt] dd ppp [hPa] vv [km] sd [min] rr [mm]
25.06.2017 19:00:00 20,5 13,9 23,0 21,2 18 10 29 15 W 1016,8 27 60 0,0
25.06.2017 18:00:00 20,3 12,8 24,9 21,0 21 11 32 17 W 1017,5 28 60 0,0
25.06.2017 17:00:00 20,5 14,2 26,1 20,8 20 11 32 17 W 1018,1 30 60 0,0
25.06.2017 16:00:00 20,2 14,1 27,1 20,6 22 12 35 19 W 1018,4 20 60 0,0
25.06.2017 15:00:00 20,6 14,0 27,4 20,4 22 12 32 17 WSW 1018,7 20 60 0,0
25.06.2017 14:00:00 21,0 13,2 27,7 20,2 19 11 29 15 WSW 1019,0 41 60 0,0
25.06.2017 13:00:00 20,2 13,6 27,1 20,1 16 9 28 15 W 1019,2 20 60 0,0
25.06.2017 12:00:00 19,3 13,7 25,9 20,1 17 9 27 14 W 1019,2 20 60 0,0
25.06.2017 11:00:00 18,9 14,0 21,4 20,0 19 10 27 15 W 1018,9 46 57 0,0
25.06.2017 10:00:00 17,8 13,7 21,8 20,1 13 7 22 12 W 1018,9 20 47 0,0
25.06.2017 09:00:00 17,3 13,6 20,3 20,2 13 7 20 11 WNW 1018,8 19 60 0,0
25.06.2017 08:00:00 15,9 13,9 15,0 20,3 9 5 15 8 WNW 1018,6 41 60 0,0
25.06.2017 07:00:00 14,4 13,6 12,6 20,4 7 4 11 6 W 1018,8 19 25 0,0
25.06.2017 06:00:00 14,5 13,4 13,7 20,5 6 3 13 7 W 1018,7 35 0 0,0
25.06.2017 05:00:00 15,2 13,7 14,8 20,6 9 5 21 12 WNW 1018,8 50 0 0,0
25.06.2017 04:00:00 15,4 14,3 15,3 20,7 10 5 17 9 W 1018,9 12 0 0,0
25.06.2017 03:00:00 15,8 15,0 15,7 20,7 10 5 22 12 WNW 1019,0 15 0 0,0
25.06.2017 02:00:00 16,1 15,0 16,0 20,8 12 6 27 15 W 1019,3 20 0 0,0
25.06.2017 01:00:00 16,6 16,0 16,6 20,8 10 6 21 11 WNW 1019,4 13 0 0,0
25.06.2017 00:00:00 16,8 16,3 16,9 20,9 9 5 31 17 WNW 1019,4 9 0 0,2
24.06.2017 23:00:00 17,6 17,3 17,5 20,9 19 11 34 19 WSW 1019,2 1,9 0 0,6
24.06.2017 22:00:00 17,4 16,9 17,5 21,0 20 11 32 17 WSW 1019,0 1,8 0 0,2
24.06.2017 21:00:00 17,3 16,7 17,6 21,0 19 10 31 17 WSW 1019,1 1,9 0 0,6
24.06.2017 20:00:00 18,7 15,4 19,0 20,9 21 11 33 18 WSW 1019,1 41 0 0,0
24.06.2017 19:00:00 19,8 14,6 21,6 20,9 24 13 40 21 WSW 1019,2 23 29 0,0
24.06.2017 18:00:00 20,0 15,0 22,9 20,7 26 14 44 24 WSW 1019,4 20 42 0,0
24.06.2017 17:00:00 20,7 15,3 24,7 20,6 28 15 41 22 W 1019,7 20 47 0,0
24.06.2017 16:00:00 21,0 15,3 23,8 20,5 27 15 43 23 W 1020,0 19 32 0,0
24.06.2017 15:00:00 21,4 15,7 24,8 20,3 28 15 42 23 WSW 1020,2 19 35 0,0
24.06.2017 14:00:00 20,0 15,4 22,5 20,2 24 13 37 20 WSW 1020,6 27 34 0,0
24.06.2017 13:00:00 20,6 14,9 24,3 20,1 25 13 38 21 WSW 1020,6 27 50 0,0
24.06.2017 12:00:00 20,0 15,0 24,9 20,0 23 12 35 19 WSW 1020,8 26 47 0,0
24.06.2017 11:00:00 19,4 14,9 21,4 20,1 18 10 28 15 WSW 1020,8 20 26 0,0
24.06.2017 10:00:00 19,1 15,4 21,5 20,1 17 9 29 15 WSW 1020,9 18 44 0,0
24.06.2017 09:00:00 17,9 15,3 19,8 20,1 11 6 19 10 W 1020,8 18 55 0,0
24.06.2017 08:00:00 15,9 15,4 13,1 20,2 2 1 7 4 W 1020,9 12 11 0,0
24.06.2017 07:00:00 14,6 14,3 9,2 20,4 4 2 6 4 NW 1020,8 9 0 0,0
24.06.2017 06:00:00 13,5 12,9 9,2 20,5 5 3 8 5 W 1021,1 6 0 0,0
24.06.2017 05:00:00 14,2 13,4 12,5 20,6 8 4 12 6 W 1021,2 8 0 0,0
24.06.2017 04:00:00 15,6 14,6 14,5 20,7 9 5 16 9 W 1021,6 15 0 0,0
24.06.2017 03:00:00 16,9 15,6 16,6 20,8 10 5 27 15 W 1021,8 17 0 0,2
24.06.2017 02:00:00 17,6 15,4 17,0 20,9 15 8 22 12 WSW 1022,4 26 0 0,0
24.06.2017 01:00:00 17,0 15,2 15,1 20,9 10 5 14 8 WSW 1022,8 20 0 0,0
24.06.2017 00:00:00 16,4 14,8 15,6 21,0 11 6 18 10 W 1023,3 25 0 0,0
23.06.2017 23:00:00 16,3 14,8 15,5 21,1 9 5 17 9 W 1023,2 29 0 0,0
23.06.2017 22:00:00 17,0 14,6 16,5 21,2 12 6 27 15 W 1022,5 41 22 0,0
23.06.2017 21:00:00 18,5 14,2 19,0 21,1 17 9 36 20 W 1022,5 42 42 0,0
23.06.2017 20:00:00 18,9 13,7 20,3 21,1 24 13 38 21 W 1022,7 30 4 0,0
23.06.2017 19:00:00 18,8 13,6 20,9 21,0 24 13 39 21 W 1022,7 34 7 0,0
23.06.2017 18:00:00 19,6 12,6 23,0 20,9 22 12 34 18 W 1022,6 31 7 0,0
23.06.2017 17:00:00 20,5 13,7 23,9 20,8 24 13 40 21 W 1022,5 32 58 0,0
23.06.2017 16:00:00 20,4 13,6 24,9 20,7 27 14 39 21 W 1022,7 36 34 0,0
23.06.2017 15:00:00 20,6 12,3 23,7 20,6 24 13 36 19 W 1022,7 43 25 0,0
23.06.2017 14:00:00 20,1 12,6 24,0 20,5 22 12 34 18 WSW 1022,7 48 33 0,0
23.06.2017 13:00:00 20,1 12,1 23,1 20,5 18 10 25 13 WSW 1022,7 55 16 0,0
23.06.2017 12:00:00 19,8 12,1 20,9 20,5 16 8 26 14 W 1022,8 60 6 0,0
23.06.2017 11:00:00 18,3 13,2 20,1 20,5 13 7 21 11 W 1022,7 44 1 0,0
23.06.2017 10:00:00 17,8 13,1 17,8 20,5 9 5 15 8 W 1022,5 57 0 0,0
23.06.2017 09:00:00 16,9 13,6 17,2 20,6 5 3 13 7 WNW 1022,0 51 0 0,0
23.06.2017 08:00:00 16,3 14,5 15,6 20,7 5 3 9 5 WNW 1021,6 37 0 0,0
23.06.2017 07:00:00 15,6 14,5 14,6 20,8 5 3 10 5 W 1021,1 35 0 0,0
23.06.2017 06:00:00 15,0 13,7 14,2 20,9 5 3 8 4 W 1020,8 20 0 0,0
23.06.2017 05:00:00 14,4 13,4 12,3 21,1 0 0 11 6 N 1020,6 20 0 0,0
23.06.2017 04:00:00 13,3 12,5 8,0 21,3 4 2 9 5 WNW 1020,6 15 0 0,0
23.06.2017 03:00:00 13,7 12,8 9,2 21,4 4 2 10 5 NNW 1020,9 18 0 0,0
23.06.2017 02:00:00 14,8 13,5 13,2 21,5 7 4 13 7 NW 1020,8 20 0 0,0
23.06.2017 01:00:00 15,4 13,4 13,8 21,6 8 4 13 7 WNW 1020,5 41 0 0,0
23.06.2017 00:00:00 16,4 13,1 15,1 21,7 8 5 21 11 WNW 1019,7 55 0 0,0
22.06.2017 23:00:00 17,8 13,7 16,3 21,8 11 6 26 14 NNW 1018,8 55 0 0,0
22.06.2017 22:00:00 19,6 13,8 18,4 21,8 15 8 33 18 NW 1017,8 53 0 0,0
22.06.2017 21:00:00 21,8 14,2 22,2 21,8 17 9 32 17 NW 1017,3 60 40 0,0
22.06.2017 20:00:00 22,0 16,0 22,2 21,8 17 9 35 19 W 1017,0 23 41 0,0
22.06.2017 19:00:00 21,9 16,0 23,4 21,7 24 13 43 23 W 1016,8 18 35 0,0
22.06.2017 18:00:00 21,5 15,6 23,8 21,7 27 15 46 25 W 1016,9 18 43 0,0
22.06.2017 17:00:00 22,2 15,3 26,6 21,5 32 17 44 24 W 1016,8 19 58 0,0
22.06.2017 16:00:00 22,8 15,9 27,6 21,4 23 12 36 20 W 1016,7 20 60 0,0
22.06.2017 15:00:00 22,2 16,2 28,5 21,3 23 12 31 17 W 1017,1 19 60 0,0
22.06.2017 14:00:00 22,3 16,3 26,8 21,2 18 10 27 14 WSW 1017,0 23 44 0,0
22.06.2017 13:00:00 22,5 15,3 24,3 21,1 8 5 22 12 WNW 1017,1 18 25 0,0
22.06.2017 12:00:00 20,0 15,6 20,6 21,1 10 5 16 9 NW 1017,3 18 0 0,0
22.06.2017 11:00:00 19,1 16,1 20,2 21,2 8 4 15 8 ESE 1017,1 15 0 0,0
22.06.2017 10:00:00 18,2 16,0 18,4 21,3 9 5 15 8 NNW 1016,7 11 0 0,0
22.06.2017 09:00:00 17,2 15,7 17,3 21,3 10 5 17 9 NNW 1016,4 7 0 0,0
22.06.2017 08:00:00 16,5 15,4 16,6 21,5 10 6 28 15 NNW 1015,9 5 0 0,0
22.06.2017 07:00:00 16,1 15,5 16,2 21,6 10 6 18 10 WNW 1015,4 4,4 0 0,0
22.06.2017 06:00:00 15,9 15,4 16,0 21,7 6 3 11 6 NW 1014,9 2,9 0 0,0
22.06.2017 05:00:00 16,2 15,7 16,4 21,8 8 4 17 9 WNW 1014,8 1,3 0 0,0
22.06.2017 04:00:00 16,8 16,2 15,8 22,0 14 7 22 12 W 1015,2 4,2 0 0,0
22.06.2017 03:00:00 16,1 15,3 15,6 22,1 10 5 12 7 W 1015,3 2,6 0 0,0
22.06.2017 02:00:00 16,7 15,9 14,7 22,2 6 3 14 8 W 1015,8 4,0 0 0,0
22.06.2017 01:00:00 17,3 16,5 16,6 22,3 8 4 16 9 W 1015,7 5 0 0,0
22.06.2017 00:00:00 17,9 17,1 17,4 22,5 16 9 25 14 W 1015,5 6 0 0,0
21.06.2017 23:00:00 18,0 17,0 17,5 22,5 12 7 18 10 W 1015,2 6 0 0,0
21.06.2017 22:00:00 18,5 17,0 18,2 22,6 9 5 21 11 WSW 1014,8 10 0 0,0
21.06.2017 21:00:00 20,2 17,4 20,8 22,6 12 6 24 13 WSW 1014,5 14 38 0,0
21.06.2017 20:00:00 21,5 17,3 23,1 22,5 16 9 21 11 WSW 1014,7 12 54 0,0
21.06.2017 19:00:00 22,9 17,8 25,1 22,5 9 5 28 15 WSW 1014,6 15 60 0,0
21.06.2017 18:00:00 22,3 18,1 26,9 22,3 19 10 27 14 W 1014,9 15 60 0,0
21.06.2017 17:00:00 23,1 17,6 29,5 22,1 13 7 25 14 WSW 1014,9 19 60 0,0
21.06.2017 16:00:00 23,3 17,1 30,7 21,9 9 5 22 12 WSW 1014,8 19 60 0,0
21.06.2017 15:00:00 23,0 17,2 30,9 21,7 12 6 22 12 WSW 1015,0 19 60 0,0
21.06.2017 14:00:00 23,4 16,9 31,0 21,5 12 6 23 12 WSW 1015,4 17 60 0,0
21.06.2017 13:00:00 22,7 16,9 30,6 21,4 12 6 26 14 SW 1015,4 16 60 0,0
21.06.2017 12:00:00 23,2 16,7 31,3 21,3 4 2 11 6 E 1015,4 16 60 0,0
21.06.2017 11:00:00 20,5 16,5 21,1 21,4 3 2 11 6 SSW 1015,3 15 13 0,0
21.06.2017 10:00:00 17,8 17,2 18,7 21,4 3 2 10 6 SE 1015,2 1,6 0 0,0
21.06.2017 09:00:00 17,4 17,1 17,8 21,5 6 3 10 5 SSE 1014,8 5 0 0,0
21.06.2017 08:00:00 17,4 17,2 17,7 21,6 5 3 12 6 SSW 1014,5 2,2 0 0,0
21.06.2017 07:00:00 17,5 17,3 17,6 21,7 5 3 11 6 S 1014,4 0,4 0 0,2
21.06.2017 06:00:00 17,4 17,2 17,5 21,8 4 2 9 5 SW 1014,3 0,2 0 0,0
21.06.2017 05:00:00 17,6 17,3 17,7 21,9 4 2 11 6 W 1014,2 0,2 0 0,0
21.06.2017 04:00:00 17,6 17,3 17,7 22,0 6 3 11 6 SW 1014,5 0,2 0 0,0
21.06.2017 03:00:00 18,0 17,7 18,2 22,1 4 2 8 5 S 1014,6 0,3 0 0,0
21.06.2017 02:00:00 18,6 18,3 18,7 22,2 5 3 9 5 SW 1014,9 0,3 0 0,0
21.06.2017 01:00:00 19,2 18,9 19,3 22,3 3 2 10 5 SW 1014,9 0,1 0 0,0
21.06.2017 00:00:00 19,4 19,1 19,5 22,4 8 4 13 7 WSW 1015,1 0,1 0 0,0
20.06.2017 23:00:00 19,6 18,8 18,6 22,5 8 4 11 6 WSW 1015,2 0,1 0 0,0
20.06.2017 22:00:00 21,1 18,5 20,4 22,5 9 5 11 6 WSW 1014,9 12 0 0,0
20.06.2017 21:00:00 22,9 18,9 23,1 22,5 7 4 13 7 WSW 1014,8 19 11 0,0
20.06.2017 20:00:00 23,8 18,4 25,2 22,4 11 6 17 9 W 1014,5 19 60 0,0
20.06.2017 19:00:00 24,4 17,6 26,5 22,3 12 7 24 13 WSW 1014,4 36 60 0,0
20.06.2017 18:00:00 26,3 18,2 30,2 22,1 12 7 20 11 WSW 1014,4 35 60 0,0
20.06.2017 17:00:00 26,5 18,1 31,8 21,9 16 9 25 13 WSW 1014,9 20 58 0,0
20.06.2017 16:00:00 28,6 19,5 35,7 21,6 11 6 18 10 S 1014,8 19 60 0,0
20.06.2017 15:00:00 29,1 18,2 35,8 21,4 13 7 23 12 SW 1015,0 34 60 0,0
20.06.2017 14:00:00 29,5 18,0 36,7 21,2 11 6 21 11 S 1014,9 20 60 0,0
20.06.2017 13:00:00 31,2 17,9 38,3 21,0 11 6 20 11 SSW 1014,8 35 60 0,0
20.06.2017 12:00:00 29,5 20,4 35,1 20,8 4 2 15 8 SSE 1014,6 36 60 0,0
20.06.2017 11:00:00 28,0 20,6 32,5 20,8 4 2 11 6 WSW 1014,7 19 60 0,0
20.06.2017 10:00:00 26,7 19,8 27,1 20,8 4 2 10 6 SSE 1014,5 19 44 0,0
20.06.2017 09:00:00 24,1 19,2 21,4 20,9 7 4 10 6 ESE 1014,4 18 55 0,0
20.06.2017 08:00:00 21,6 18,8 17,8 21,0 8 4 12 6 NE 1014,2 20 26 0,0
20.06.2017 07:00:00 19,1 17,6 15,6 21,1 6 4 9 5 NNE 1014,3 18 0 0,0
20.06.2017 06:00:00 18,5 17,2 15,5 21,2 6 3 8 4 NE 1014,2 20 0 0,0
20.06.2017 05:00:00 19,0 17,1 14,8 21,4 0 0 5 3 N 1014,1 20 0 0,0
20.06.2017 04:00:00 19,6 17,4 15,2 21,6 4 2 10 6 N 1014,1 20 0 0,0
20.06.2017 03:00:00 20,0 17,8 15,2 21,7 9 5 12 6 NNE 1014,2 24 0 0,0
20.06.2017 02:00:00 20,3 18,1 15,4 21,8 4 2 12 6 NNE 1014,7 20 0 0,0
20.06.2017 01:00:00 21,0 18,2 15,6 22,0 7 4 10 5 NE 1014,9 19 0 0,0
20.06.2017 00:00:00 20,8 18,0 15,6 22,1 6 4 11 6 NNE 1015,3 28 0 0,0
19.06.2017 23:00:00 21,7 17,7 15,6 22,1 8 4 11 6 N 1015,3 28 0 0,0
19.06.2017 22:00:00 22,5 17,0 20,4 22,1 6 3 11 6 W 1015,1 32 11 0,0
19.06.2017 21:00:00 27,1 18,1 26,0 22,1 6 4 10 6 W 1014,6 41 60 0,0
19.06.2017 20:00:00 28,3 18,4 28,6 21,9 5 3 15 8 W 1014,7 48 60 0,0
19.06.2017 19:00:00 29,2 18,6 31,2 21,7 11 6 17 9 W 1014,7 20 60 0,0

tt = Température de l'air
td = dewpoint
tt 5cm = Température de l'air 5cm
tt -20cm = Température de l'air -20cm
ff = Vitesse du vent
fx = gusts
dd = Direction du vent
ppp = reduced air pressure
vv = visibility
sd = Ensoleillement
rr = Quantités de précipitations

stations d'obs. à proximité